Regional Weather Roundup
Issued by NWS

Home | Current Version | Previous Version | Graphics & Text | Print | Product List | Glossary On
Versions: 1 2 3 4 5 6 7 8 9 10 11 12 13 14 15 16 17 18 19 20 21 22 23 24 25 26 27 28 29 30 31 32 33 34 35 36 37 38 39 40 41 42 43 44 45 46 47 48 49 50
000
ASUS43 KOAX 211802
RWRNE

WEATHER ROUNDUP FOR NEBRASKA
NATIONAL WEATHER SERVICE OMAHA NE
100 PM CDT TUE OCT 21 2014

NOTES: SATELLITE DATA IS BEING USED TO AUGMENT CLOUD COVER ABOVE
       12000 FEET.
       "FAIR" INDICATES FEW OR NO CLOUDS BELOW 12,000 FEET WITH NO
       SIGNIFICANT WEATHER AND/OR OBSTRUCTIONS TO VISIBILITY.

  * THESE STATIONS DO NOT REPORT WEATHER SUCH AS RAIN...SNOW OR FOG.

NEZ001>004-019>022-054>056-211900-
NEBRASKA PANHANDLE

CITY           SKY/WX    TMP DP  RH WIND       PRES   REMARKS
SCOTTSBLUFF    MOSUNNY   69  43  38 SE5       29.93F
6HR MIN TEMP:  42; 6HR MAX TEMP:  69;

ALLIANCE       SUNNY     70  48  45 S12       29.93F
6HR MIN TEMP:  42; 6HR MAX TEMP:  70;

CHADRON        MOSUNNY   78  48  34 VRB6      29.85F
6HR MIN TEMP:  44; 6HR MAX TEMP:  79;

KIMBALL        SUNNY     75  36  24 NE5       29.95F
SIDNEY         SUNNY     68  48  48 S10       29.98F
6HR MIN TEMP:  42; 6HR MAX TEMP:  68;

$$

NEZ057>060-069>072-079>082-211900-
SOUTHWEST NEBRASKA

CITY           SKY/WX    TMP DP  RH WIND       PRES   REMARKS
NORTH PLATTE   SUNNY     71  54  54 S15G26    29.99F
6HR MIN TEMP:  43; 6HR MAX TEMP:  72;

IMPERIAL       SUNNY     71  55  56 S20G28    29.99F
6HR MIN TEMP:  50; 6HR MAX TEMP:  71;

LEXINGTON      SUNNY     73  45  36 S17G25    30.04F
MC COOK        SUNNY     75  56  51 S16G28    30.02F
6HR MIN TEMP:  41; 6HR MAX TEMP:  75;

OGALLALA       SUNNY     70  56  62 S15G21    29.98F
$$

NEZ005>010-023>029-035>040-094-211900-
NORTH CENTRAL NEBRASKA

CITY           SKY/WX    TMP DP  RH WIND       PRES   REMARKS
VALENTINE      SUNNY     77  44  30 S20G31    29.93F
6HR MIN TEMP:  48; 6HR MAX TEMP:  77;

AINSWORTH      SUNNY     74  41  30 S28       29.96F
BROKEN BOW     SUNNY     75  40  28 S21G30    30.02F
6HR MIN TEMP:  36; 6HR MAX TEMP:  75; 6HR PCP: TRACE;

O`NEILL        SUNNY     77  44  30 S22       30.00S
ORD            SUNNY     74  39  28 S21G31    30.02F
6HR MIN TEMP:  34; 6HR MAX TEMP:  75;

THEDFORD       SUNNY     73  48  41 S24G31    29.99F
$$

NEZ041-046>049-061>064-073>077-083>087-211900-
SOUTH CENTRAL NEBRASKA

CITY           SKY/WX    TMP DP  RH WIND       PRES   REMARKS
GRAND ISLAND   SUNNY     77  41  27 S14       30.06F
6HR MIN TEMP:  41; 6HR MAX TEMP:  77;

AURORA         SUNNY     74  38  26 S13G22    30.06F
HASTINGS       SUNNY     74  36  25 S15G25    30.06F
6HR MIN TEMP:  46; 6HR MAX TEMP:  74;

HEBRON         SUNNY     75  37  25 S10G17    30.08F
HOLDREGE       SUNNY     71  47  42 S20G26    30.05F
KEARNEY *      SUNNY     73  39  29 SE23      30.06F
YORK           LGT RAIN  73  45  35 S13       30.07F
$$

NEZ011>018-030>034-042>045-211900-
NORTHEAST NEBRASKA

CITY           SKY/WX    TMP DP  RH WIND       PRES   REMARKS
NORFOLK        SUNNY     74  45  35 S14       30.04F
6HR MIN TEMP:  38; 6HR MAX TEMP:  74;

ALBION         SUNNY     73  42  33 S12       30.05S
BLAIR          FAIR      71  39  30 S8        30.09F
COLUMBUS *     SUNNY     73  45  35 SW10      30.07F
FREMONT        SUNNY     72  43  35 S10       30.08F
TEKAMAH        SUNNY     72  42  34 S10       30.08F
6HR MIN TEMP:  35; 6HR MAX TEMP:  72;

$$

NEZ050>053-065>068-078-088>093-211900-
SOUTHEAST NEBRASKA

CITY           SKY/WX    TMP DP  RH WIND       PRES   REMARKS
LINCOLN        SUNNY     74  44  34 S10       30.09F
6HR MIN TEMP:  35; 6HR MAX TEMP:  74;

OMAHA EPPLEY   SUNNY     68  42  38 S8        30.10F
6HR MIN TEMP:  39; 6HR MAX TEMP:  69;

BEATRICE       SUNNY     73  46  37 S9        30.09F
FALLS CITY     SUNNY     72  43  35 VRB5      30.10F
6HR MIN TEMP:  34; 6HR MAX TEMP:  72;

NEBRASKA CITY  SUNNY     69  37  31 SE6       30.11F
PLATTSMOUTH    SUNNY     69  36  29 SE6       30.11F
$$

NEZ044-045-051>053-067-211900-
OMAHA AREA

CITY           SKY/WX    TMP DP  RH WIND       PRES   REMARKS
EPPLEY FIELD   SUNNY     68  42  38 S8        30.10F
6HR MIN TEMP:  39; 6HR MAX TEMP:  69;

BLAIR          SUNNY     71  39  30 S8        30.09F
FREMONT        SUNNY     72  43  35 S10       30.08F
MILLARD        SUNNY     69  45  42 SE6       30.10F
OFFUTT AFB     SUNNY     70  43  37 SE9       30.09F
PLATTSMOUTH    SUNNY     69  36  29 SE6       30.11F
WAHOO          FAIR      73  39  29 S13       30.08F
$$



USA.gov is the U.S. government's official web portal to all federal, state and local government web resources and services.